This demonstration page uses our WeatherBlox Daily Observations layout. Learn more.

Left ArrowRight Arrow

Hourly Observations for September 21, 2019

Temp ( °F °C ) Dew Point ( °F °C ) Humidity (%) Winds ( mph kmh ) Pressure ( in mb ) Visibility ( mi km ) Precip ( " mm )
12:46 am 00:46 Cloudy 73 22.8 68 20 84 84 S 15 24 29.83 1010 10 16 0.00 0.00
12:54 am 00:54 Cloudy 73 22.8 68 20 84 84 S 17 28 29.83 1010 10 16 0.00 0.00
1:54 am 01:54 Cloudy 74 23.3 68 20 82 82 S 17 28 29.82 1010 10 16 0.00 0.00
2:28 am 02:28 Cloudy 74 23.3 68 20 82 82 S 17 28 29.81 1010 10 16 0.00 0.00
2:54 am 02:54 Cloudy 74 23.3 69 20.6 85 85 S 15 24 29.81 1009 10 16 0.00 0.00
3:54 am 03:54 Cloudy 74 23.3 69 20.6 85 85 SSE 14 22 29.80 1009 10 16 0.00 0.00
4:37 am 04:37 Cloudy 74 23.3 69 20.6 85 85 SSE 17 28 29.77 1008 10 16 0.00 0.00
4:54 am 04:54 Cloudy 74 23.3 69 20.6 85 85 S 17 28 29.78 1008 10 16 0.00 0.00
5:31 am 05:31 Cloudy 74 23.3 69 20.6 85 85 S 16 26 29.77 1008 10 16 0.00 0.00
5:40 am 05:40 Cloudy 74 23.3 69 20.6 85 85 S 13 20 29.77 1008 10 16 0.00 0.00
5:54 am 05:54 Mostly Cloudy 74 23.3 69 20.6 85 85 S 13 20 29.79 1009 10 16 0.00 0.00
6:54 am 06:54 Mostly Cloudy 74 23.3 68 20 82 82 S 14 22 29.80 1009 10 16 0.00 0.00
7:54 am 07:54 Cloudy 75 23.9 67 19.4 76 76 S 16 26 29.81 1009 10 16 0.00 0.00
8:45 am 08:45 Cloudy 75 23.9 67 19.4 76 76 S 15 24 29.79 1009 10 16 0.00 0.00
8:54 am 08:54 Cloudy 75 23.9 67 19.4 76 76 S 16 26 29.80 1009 10 16 0.00 0.00
9:54 am 09:54 Cloudy 76 24.4 67 19.4 74 74 S 21 33 29.80 1009 10 16 0.00 0.00
10:54 am 10:54 Cloudy 76 24.4 67 19.4 74 74 S 18 30 29.81 1010 10 16 0.00 0.00
11:54 am 11:54 Cloudy 78 25.6 67 19.4 69 69 SSW 14 22 29.80 1009 10 16 0.00 0.00
12:54 pm 12:54 Cloudy 79 26.1 67 19.4 67 67 S 13 20 29.80 1009 10 16 0.00 0.00
1:54 pm 13:54 Cloudy 81 27.2 67 19.4 62 62 SSW 10 17 29.80 1009 10 16 0.00 0.00
2:54 pm 14:54 Cloudy 81 27.2 68 20 65 65 S 12 19 29.79 1009 10 16 0.00 0.00
3:54 pm 15:54 Mostly Cloudy 84 28.9 68 20 59 59 S 8 13 29.78 1009 10 16 0.00 0.00
4:54 pm 16:54 Mostly Cloudy 86 30 68 20 55 55 SSW 13 20 29.78 1008 10 16 0.00 0.00
5:54 pm 17:54 Mostly Cloudy 86 30 68 20 55 55 SSE 10 17 29.77 1008 10 16 0.00 0.00
6:54 pm 18:54 Partly Cloudy with Nearby Thunderstorms 83 28.3 70 21.1 65 65 SE 8 13 29.76 1008 10 16 0.00 0.00
7:19 pm 19:19 Mostly Cloudy with Thunderstorms 82 27.8 70 21.1 67 67 ESE 10 17 29.73 1007 10 16 0.00 0.00
7:28 pm 19:28 Windy with Storms Likely 79 26.1 72 22.2 79 79 SSW 29 46 29.76 1008 1 2 0.00 0.00
7:35 pm 19:35 Cloudy with Strong Thunderstorms 69 20.6 63 17.2 81 81 S 23 37 29.79 1009 1 1 0.18 4.57
7:39 pm 19:39 Cloudy with Strong Thunderstorms 69 20.6 63 17.2 81 81 SSE 17 28 29.81 1010 1 1 0.26 6.60
7:45 pm 19:45 Cloudy with Strong Thunderstorms 68 20 61 16.1 78 78 E 16 26 29.76 1008 1 1 0.61 15.49
7:50 pm 19:50 Cloudy with Nearby Thunderstorms 68 20 61 16 78 78 SE 15 24 29.79 1009 1 2 0.87 22.10
7:54 pm 19:54 Cloudy with Nearby Thunderstorms 68 20 62 16.7 81 81 E 13 20 29.77 1008 2 3 0.90 22.86
8:01 pm 20:01 Cloudy with Nearby Thunderstorms 68 20 62 16.7 81 81 S 8 13 29.78 1008 3 5 0.19 4.83
8:11 pm 20:11 Cloudy 69 20.6 64 17.8 84 84 NNW 6 9 29.77 1008 10 16 0.19 4.83
8:54 pm 20:54 Partly Cloudy 71 21.7 65 18.3 81 81 NNW 7 11 29.83 1010 10 16 0.19 4.83
9:54 pm 21:54 Mostly Clear 70 21.1 66 18.9 87 87 S 6 9 29.85 1011 10 16 0.00 0.00
10:09 pm 22:09 Mostly Cloudy with Nearby Thunderstorms 70 21.1 64 17.8 82 82 E 3 6 29.83 1010 10 16 0.00 0.00
10:21 pm 22:21 Cloudy with Thunderstorms 70 21.1 65 18.3 84 84 WSW 8 13 29.84 1011 10 16 0.00 0.00
10:54 pm 22:54 Cloudy with Thunderstorms 68 20 65 18.3 90 90 ESE 6 9 29.86 1011 9 14 0.13 3.30
11:05 pm 23:05 Cloudy with Nearby Thunderstorms 69 20.6 66 18.9 90 90 SSW 12 19 29.87 1012 7 11 0.02 0.51
11:54 pm 23:54 Cloudy with Light Rain 67 19.4 63 17.2 87 87 ESE 6 9 29.88 1012 9 14 0.16 4.06

Powered by AerisWeather